Location: *
(44.3925°N, 5.4708°E)
Time: 10:03:52
(UTC+00:00)

Okean 1 Rocket - Pass Details

Date: 18 September 2019
Orbit: 608 x 633 km, 82.5° (Epoch: 22 October)

Event Time Altitude Azimuth Distance (km) Brightness Sun altitude
Rises 18:54:47 0° 188° (S) 2,853 6.4 -13.3°
Reaches altitude 10° 18:56:59 10° 189° (S) 1,954 5.5 -13.7°
Maximum altitude 19:01:19 85° 280° (W) 618 3.0 -14.4°
Drops below altitude 10° 19:05:42 10° 8° (N) 1,979 5.8 -15.2°
Sets 19:07:56 0° 9° (N) 2,893 6.6 -15.6°
